User: anonymous   Login
Location: Équennes
(49.7375°N, 1.9622°E)
Time: 05:26:53
(UTC+00:00)
Language:

SL-08 ROCKET BODY - Orbit

View from above orbital plane
View from above orbital plane
View from above satellite
View from above satellite

Ground track
Ground track

The orbit data is extracted from the following two-line orbital elements,

1 28522U 05002B   23152.49902147 -.00000017  00000-0 -26558-4 0  9995
2 28522  82.9445 145.9231 0045811 169.6995 190.5119 13.89717953931161
Epoch (UTC): 01 June 2023 11:58:35
Eccentricity: 0.0045811
inclination: 82.9445°
perigee height: 896 km
apogee height: 963 km
right ascension of ascending node: 145.9231°
argument of perigee: 169.6995°
revolutions per day: 13.89717953
mean anomaly at epoch: 190.5119°
orbit number at epoch: 93116

The dashed part of the orbit path shows where the satellite is in the earth's shadow,  

DLR